KUIPER-00607

导读

KUIPER-00607(NORAD编号69290)是亚马逊低轨互联网星座项目(原Project Kuiper,2025年11月更名为Leo)的组网卫星,为美国研发的商用通信卫星。该星属于2026年上半年密集发射批次之一,当前在轨运行,正逐步完成从初始轨道向630公里工作轨道的爬升。 作为Leo星座3236颗组网卫星的组成部分,它搭载升级后的相控阵天线与电推进系统,搭载低反光镀膜以降低对天文观测的干扰,将为全球网络欠覆盖区域提供高速低延迟的宽带接入服务,支撑未来民用及政企级网络服务需求。截至2026年6月,亚马逊该星座在轨卫星已超300颗,正按FCC要求推进2026年7月前完成1616颗卫星部署的进度目标。

基本信息
目录编号:
69290
目录名称:
KUIPER-00607
国际标识:
2026-118Z
轨道中心:
EARTH
卫星名称:
KUIPER-00607
卫星全名:
KUIPER-00607
卫星状态:
在轨 (已飞行105 天)
发射日期:
2026-05-29 UTC
国别 :
美国 (US)
星等 :
--
该卫星已列入 空间交会检测服务 Space Conjunction Data Service (SCDS) ,当前飞行风险评估等级: 无高风险
轨道信息
数据来源 国际轨道数据 AOE轨道数据
星历时间 2026-09-11T08:00:04+0800
17小时前
查看轨道信息
2026-09-10T09:00:00+0800
1天前
查看轨道信息
半长轴 7007.6km 7007.782km
偏心率 0.000127 0.0002241
轨道倾角 51.902° 51.901°
近地点辐角 356.943° 343.813°
升交点赤经 6.210° 10.450°
平近点角 81.698° 25.702°
近地点 628.573km 628.074km
远地点 630.353km 631.216km
周期 97.300分钟 97.304分钟
每日圈数 14.799561 14.798986
详细信息
使用方式:
暂无
2D轨道图
3D轨道图
轨道高度分析图
轨道倾角分析图
轨道综合分析图
查看轨道综合分析图
交会数据列表
事件ID 空间交会对象 最接近时刻(TCA) 交会距离 交会风险概率(CRP) 交会风险指数(CRI) 操作
CDM_260906-010705-445906-929021
2026-09-06T
01:07:33+0000
2.032 km
极远距离
1.888125E-6 低风险 0.41
CDM_260913-140302-785806-929021
SCISAT 1 (27858)
2026-09-13T
14:03:25+0000
2.597 km
极远距离
6.60369E-7 极低风险 0.31
与全量物体交会距离演化趋势
与全量物体交会风险概率演化趋势